Location: Tambov
(52.7163°N, 41.4075°E)
Time: 05:07:47
(UTC+03:00)

Envisat - Pass Details

Date: 09 March 2021
Orbit: 764 x 766 km, 98.1° (Epoch: 18 April)

Event Time Altitude Azimuth Distance (km) Brightness Sun altitude
Rises 04:14:20 0° 30° (NNE) 3,246 7.1 -22.8°
Reaches altitude 10° 04:18:41 10° 66° (ENE) 2,311 6.6 -22.2°
Maximum altitude 04:20:05 11° 82° (E) 2,237 6.4 -22.0°
Drops below altitude 10° 04:21:28 10° 98° (E) 2,306 6.3 -21.8°
Sets 04:25:47 0° 134° (SE) 3,223 6.6 -21.2°
